This is the latest recevied weather packets stored in our database for station/object K9COE-11. If no packets are shown the sender has not sent any weather packets the latest 10 day(s).
| Time | Temp. | Humidity | Pressure | Rain* | Wind** | Luminosity | Snow |
|---|---|---|---|---|---|---|---|
| 1788630977 | 26.67° C | 26% | - | 0 mm | - | - | - |
| 1788630839 | 26.67° C | 29% | - | 0 mm | - | - | - |
| 1788630707 | 26.67° C | 29% | - | 0 mm | - | - | - |
| 1788630570 | 26.67° C | 30% | - | 0 mm | - | - | - |
| 1788630431 | 26.67° C | 28% | - | 0 mm | - | - | - |
| 1788630298 | 26.67° C | 31% | - | 0 mm | - | - | - |
| 1788630160 | 26.67° C | 30% | - | 0 mm | - | - | - |
| 1788630022 | 26.67° C | 32% | - | 0 mm | - | - | - |
| 1788629890 | 26.11° C | 33% | - | 0 mm | - | - | - |
| 1788629758 | 26.11° C | 32% | - | 0 mm | - | - | - |
| 1788629487 | 26.11° C | 32% | - | 0 mm | - | - | - |
| 1788629349 | 25.56° C | 32% | - | 0 mm | - | - | - |
| 1788629211 | 25.56° C | 33% | - | 0 mm | - | - | - |
| 1788628947 | 25.56° C | 36% | - | 0 mm | - | - | - |
| 1788628670 | 25.56° C | 35% | - | 0 mm | - | - | - |
| 1788628268 | 25° C | 37% | - | 0 mm | - | - | - |
| 1788628129 | 25° C | 35% | - | 0 mm | - | - | - |
| 1788627991 | 25.56° C | 40% | - | 0 mm | - | - | - |
| 1788627859 | 25° C | - | - | - | - | - | - |
| 1788627727 | 24.44° C | 41% | - | 0 mm | - | - | - |
| 1788627595 | 25° C | 41% | - | 0 mm | - | - | - |
| 1788627457 | 25° C | 38% | - | 0 mm | - | - | - |
| 1788627192 | 24.44° C | 40% | - | 0 mm | - | - | - |
| 1788627054 | 24.44° C | 43% | - | 0 mm | - | - | - |
| 1788626922 | 23.89° C | 44% | - | 0 mm | - | - | - |
* Rain latest 24 hours (hover to see other rain measurements)
** Current wind speed in m/s (hover to see current wind gust speed)